Flag for Germany Weather past 2 weeks in Stralsund, Mecklenburg-Western Pomerania, Germany

Now
52 °F

Overcast.


Feels Like: 52 °F
Forecast: 42 / 45 °F
Wind: 2 mph from Southwest

Location: Greifswald

Current Time: Apr 26, 2015 at 6:51:01 AM

Latest Report: Apr 26, 2015 at 6:00 AM


Visibility: 2 mi

Pressure: 29.71 "Hg

Humidity: 94%

Dew point: 50 °F

Location of StralsundLocation

Historic Weather in Stralsund — Graph

°F

Stralsund temperature yesterday

Maximum temperature yesterday: 64 °F (at 12:00 PM)
Minimum temperature yesterday: 43 °F (at 1:00 AM)
Average temperature yesterday: 54 °F

Past Weeks' High & Low Weather Summary

 TemperatureHumidityPressure
High69 °F (Apr 11, 2:00 PM)100% (Apr 25, 3:00 AM)30.33 "Hg (Apr 25, 3:00 AM)
Low35 °F (Apr 18, 6:00 AM)37% (Apr 11, 4:00 PM)29.70 "Hg (Apr 25, 8:00 PM)
Average49 °F69%30.08 "Hg
* Reported Apr 11 4:00 AM — Apr 26 4:00 AM, Stralsund, Weather by CustomWeather, © 2015

Note: Actual official high and low records may vary slightly from our data, if they occured in-between our weather recording intervals... More about our weather records

Advertising

Stralsund weather history for previous 24 hours

 ConditionsComfort  
Time TempWeatherWind HumidityBarometerVisibility
4:00 AM
Sun, Apr 26
52 °FLight rain. Overcast.2 mph94%29.72 "Hg2 mi
3:00 AM52 °FFog.3 mph94%29.72 "Hg3 mi
2:00 AM52 °FFog.3 mph94%29.72 "Hg2 mi
1:00 AM52 °FFog.2 mph95%29.72 "Hg2 mi
12:00 AM52 °FFog.2 mph94%29.72 "Hg3 mi
10:00 PM
Sat, Apr 25
54 °FLight rain. Overcast.2 mph92%29.72 "Hg4 mi
9:00 PM55 °FLight rain. Overcast.2 mph94%29.72 "Hg2 mi
8:00 PM55 °FLight rain. Overcast.2 mph91%29.70 "Hg3 mi
7:00 PM56 °FLight rain. Overcast.3 mph90%29.71 "Hg3 mi
6:00 PM60 °FRain showers. Overcast.6 mph70%29.71 "Hg7 mi
4:00 PM63 °FOvercast.5 mph66%29.71 "Hg7 mi
3:00 PM61 °FOvercast.2 mph77%29.72 "Hg5 mi
2:00 PM56 °FLight rain. Overcast.2 mph88%29.74 "Hg3 mi
1:00 PM57 °FLight rain. Overcast.3 mph76%29.77 "Hg4 mi
12:00 PM64 °FOvercast.7 mph48%29.75 "Hg7 mi
10:00 AM61 °FOvercast.5 mph52%29.75 "Hg5 mi
9:00 AM58 °FOvercast.3 mph58%29.75 "Hg5 mi
8:00 AM54 °FPassing clouds.2 mph65%29.75 "Hg5 mi
7:00 AM48 °FPassing clouds.2 mph79%29.76 "Hg5 mi
6:00 AM45 °FFog.2 mph88%29.76 "Hg4 mi
Weather by CustomWeather, © 2015

See weather overviewHow to use our weather pages